Regional Weather Roundup
Issued by NWS Albany, NY

Home | Current Version | Previous Version | Text Only | Print | Product List | Glossary On
Versions: 1 2 3 4 5 6 7 8 9 10 11 12 13 14 15 16 17 18 19 20 21 22 23 24 25 26 27 28 29 30 31 32 33 34 35 36 37 38 39 40 41 42 43 44 45 46 47 48 49 50
000
ASUS41 KALY 020210
RWRALY

NEW YORK STATE HOURLY WEATHER ROUNDUP
NATIONAL WEATHER SERVICE ALBANY NY
900 PM EST SUN FEB 01 2015

NOTE: "FAIR" INDICATES FEW OR NO CLOUDS BELOW 12,000 FEET WITH NO
SIGNIFICANT WEATHER AND/OR NO OBSTRUCTIONS TO VISIBILITY.

NYZ032-033-038>043-046>054-057>066-NYZ062>081-020300-
EAST


CITY           SKY/WX    TMP DP  RH WIND       PRES   REMARKS
ALBANY         CLOUDY    13  -1  54 N10       30.14F WCI   0
GLENS FALLS    PTCLDY     5  -4  66 N6        30.18S WCI  -6
POUGHKEEPSIE   CLOUDY    30  19  63 CALM      30.07F
NEWBURGH       LGT SNOW  28  27  93 CALM      30.06  FOG
MONTGOMERY     LGT SNOW  29  26  89 CALM      30.05F FOG
WHITE PLAINS   LGT SNOW  30  23  74 SW3       30.07F FOG
ISLIP          CLOUDY    32  22  66 CALM      30.09F
NEW YORK CITY  FLURRIES  34  23  64 S7        30.09F WCI  28
CENTRAL PARK   CLOUDY    34  24  67 S5        30.10F HAZE    WCI  30
$$

NYZ005>009-017-018-044>046-055-056-020300-
CENTRAL


CITY           SKY/WX    TMP DP  RH WIND       PRES   REMARKS
FULTON         CLOUDY    12   1  61 CALM      30.05F
SYRACUSE       FLURRIES  12   4  70 NE3       30.04F
ROME           CLOUDY    13   4  67 CALM      30.06F
ELMIRA         LGT SNOW  19  17  92 E8        29.93F VSB 1   WCI   9
BINGHAMTON     LGT SNOW  21  19  92 E9        29.90F FOG     WCI  11
MONTICELLO     CLOUDY    25  23  93 E6        29.99F WCI  18
$$

NYZ026>034-041>043-020300-
NORTH


CITY           SKY/WX    TMP DP  RH WIND       PRES   REMARKS
WATERTOWN      MOCLDY     3  -9  57 NE17      30.13F WCI -17
FORT DRUM      NOT AVBL
MASSENA        PTCLDY   -11 -17  75 CALM      30.23F
SARANAC LAKE   CLOUDY    -4  -9  79 N5        30.00F WCI -15
PLATTSBURGH    MOCLDY    -2 -12  62 NW3       30.22F
$$

NYZ001>004-010>016-019>021-020300-
WEST


CITY           SKY/WX    TMP DP  RH WIND       PRES   REMARKS
NIAGARA FALLS  LGT SNOW  13   9  84 E24G30    29.92F VSB 1   WCI  -7
BUFFALO        LGT SNOW  13   8  81 E20       29.90F BLWGSNOWWCI  -5
DUNKIRK        LGT SNOW  20  18  92 NE17      29.78F VSB 1   WCI   5
JAMESTOWN      CLOUDY    25  21  86 E8        29.69F VSB 1   WCI  16
WELLSVILLE     LGT SNOW  19  15  84 SE13G18   29.77F FOG     WCI   6
ROCHESTER      LGT SNOW  15  10  80 E12       30.00F WCI   2
PENN YAN       LGT SNOW  13   9  84 NE6       29.96F FOG     WCI   4
$$

             KEY
       WCI = WIND CHILL INDEX
       VSB = VISIBILITY
       HX  = HEAT INDEX
$$


USA.gov is the U.S. government's official web portal to all federal, state and local government web resources and services.